Showing default

YAOGAN-35 05C, 53763

Orbit data source: Space-Track

YAOGAN-35 05C, 53763 is a payload satellite owned by PLA GAD (CN) in LEO that was launched on Tue, 06 Sep 2022 UTC via a CHANG ZHENG 2D launch vehicle from the Xichang Space Center, China (XSC). Payload-class satellites include a variety of spacecraft equipped with specific instruments for various scientific and technological missions. These include communications satellites like Starlink; space stations such as the ISS; scientific satellites like the Hubble; Earth observation satellites from companies like Planet Labs, Umbra, and HawkEye 360; GPS; miniature CubeSats for education and research; and military/defense satellites.

Loading next visibility...
Identifier
53763, 2022-109D
Orbit
LEO
Country
Flag of CNCN / PRC
Related business
Manufacturer
DFH
Mission
Operational Defense Sigint
Bus & Motor
Unknown
Mass
~300 kg wet, ~300 kg dry
Launch date (UTC)
2022-09-06 (3 years ago)
Launch vehicle
CHANG ZHENG 2D
Launch site
Xichang Space Center, China (XSC)
Object type
Payload
Rocket body
Debris
Shape & HBR
Box + 2 Pan, 2.5 m
Radar Cross Section
11.063 m², Large (>1 m²)

Expand to show TLE details & history
Last TLE update: 8 hours ago

TLE from 8 hours ago
0 YAOGAN-35 05C
1 53763U 22109D   25355.28159416  .00007276  00000-0  32876-3 0  9995
2 53763  34.9929  34.3020 0003132 130.5146 229.5841 15.20256044183252
Epoch: 2025-12-21T06:45Z
TLE epoch observation values (Epoch: 2025-12-21T06:45:29.735Z)
Latitude
-0°
Longitude
-157.16819°
Altitude
505.373 km
Speed
7.613 km/s
True Right ascension
02h 17m 12s
True Declination
0° 00' 00"
Sunlit
Object was in full shadow at epoch
Visualization orbit readout
Latitude
Unknown
Longitude
Unknown
Altitude
Unknown
Speed
Unknown
Apparent Right ascension
Unknown
Apparent Declination
Unknown
Sunlit
N/A
Visualization observer readout
Local Sidereal Time
13:57:00
Azimuth
Unknown
Elevation
Unknown
Doppler factor
Unknown
Orbital elements
Apogee altitude
510.472 km
Perigee altitude
506.158 km
Semi-major axis
6,886.452 km
Eccentricity
0.00031
Inclination
34.9929°
RAAN
34.302°
Arg. of periapsis
130.5146°
True anomaly
229.55678°
Mean anomaly
229.5841°
Eccentric anomaly
229.57044°
Mean motion
3.79796 °/min
Orbital period
94.79 mins
BSTAR
0.00032876
Loading maneuver chart data...
Computing Atmospheric mass density...
Loading historical data...
Loading historical data...
Loading historical data...
Loading historical data...
Loading historical data...
Loading historical data...
Loading historical data...
Other satellites on launch #109 in the year 2022 (2022-09-06 UTC)

Documentation

Showing up to 5 results
|